User: anonymous   Login
Location: Unspecified
(0.0000°N, 0.0000°E)
Time: 13:44:20
(UTC+00:00)
Language:

CP4 - Orbit

View from above orbital plane
View from above orbital plane
View from above satellite
View from above satellite

Ground track
Ground track

The orbit data is extracted from the following two-line orbital elements,

1 31132U 07012Q   17114.87037373 +.00000336 +00000-0 +78935-4 0  9990
2 31132 098.0250 072.4653 0079796 306.6892 052.6994 14.58814805532688
Epoch (UTC): 24 April 2017 20:53:20
Eccentricity: 0.0079796
inclination: 98.0250°
perigee height: 640 km
apogee height: 753 km
right ascension of ascending node: 72.4653°
argument of perigee: 306.6892°
revolutions per day: 14.58814805
mean anomaly at epoch: 52.6994°
orbit number at epoch: 53268

The dashed part of the orbit path shows where the satellite is in the earth's shadow,  

DLR